Year,Month,Day,Hour,Minute,Value (Times are PST for temperature in C)
2015,10,04,00,00,10.60
2015,10,04,00,01,10.70
2015,10,04,00,02,10.70
2015,10,04,00,03,10.70
2015,10,04,00,04,10.70
2015,10,04,00,05,10.70
2015,10,04,00,06,10.70
2015,10,04,00,07,10.70
2015,10,04,00,08,10.70
2015,10,04,00,09,10.70
2015,10,04,00,10,10.70
2015,10,04,00,11,10.70
2015,10,04,00,12,10.70
2015,10,04,00,13,10.60
2015,10,04,00,14,10.60
2015,10,04,00,15,10.60
2015,10,04,00,16,10.60
2015,10,04,00,17,10.60
2015,10,04,00,18,10.60
2015,10,04,00,19,10.60
2015,10,04,00,20,10.60
2015,10,04,00,21,10.70
2015,10,04,00,22,10.70
2015,10,04,00,23,10.70
2015,10,04,00,24,10.80
2015,10,04,00,25,10.80
2015,10,04,00,26,10.80
2015,10,04,00,27,10.80
2015,10,04,00,28,10.80
2015,10,04,00,29,10.70
2015,10,04,00,30,10.70
2015,10,04,00,31,10.70
2015,10,04,00,32,10.70
2015,10,04,00,33,10.70
2015,10,04,00,34,10.70
2015,10,04,00,35,10.70
2015,10,04,00,36,10.70
2015,10,04,00,37,10.60
2015,10,04,00,38,10.60
2015,10,04,00,39,10.60
2015,10,04,00,40,10.60
2015,10,04,00,41,10.60
2015,10,04,00,42,10.60
2015,10,04,00,43,10.50
2015,10,04,00,44,10.50
2015,10,04,00,45,10.50
2015,10,04,00,46,10.50
2015,10,04,00,47,10.50
2015,10,04,00,48,10.60
2015,10,04,00,49,10.60
2015,10,04,00,50,10.60
2015,10,04,00,51,10.70
2015,10,04,00,52,10.70
2015,10,04,00,53,10.70
2015,10,04,00,54,10.70
2015,10,04,00,55,10.80
2015,10,04,00,56,10.80
2015,10,04,00,57,10.80
2015,10,04,00,58,10.80
2015,10,04,00,59,10.80
2015,10,04,01,00,10.80
2015,10,04,01,01,10.80
2015,10,04,01,02,10.80
2015,10,04,01,03,10.80
2015,10,04,01,04,10.80
2015,10,04,01,05,10.80
2015,10,04,01,06,10.70
2015,10,04,01,07,10.60
2015,10,04,01,08,10.60
2015,10,04,01,09,10.50
2015,10,04,01,10,10.30
2015,10,04,01,11,10.20
2015,10,04,01,12,10.00
2015,10,04,01,13,9.90
2015,10,04,01,14,9.70
2015,10,04,01,15,9.60
2015,10,04,01,16,9.50
2015,10,04,01,17,9.40
2015,10,04,01,18,9.30
2015,10,04,01,19,9.20
2015,10,04,01,20,9.10
2015,10,04,01,21,9.00
2015,10,04,01,22,8.90
2015,10,04,01,23,8.80
2015,10,04,01,24,8.80
2015,10,04,01,25,8.70
2015,10,04,01,26,8.60
2015,10,04,01,27,8.50
2015,10,04,01,28,8.50
2015,10,04,01,29,8.40
2015,10,04,01,30,8.40
2015,10,04,01,31,8.30
2015,10,04,01,32,8.30
2015,10,04,01,33,8.20
2015,10,04,01,34,8.10
2015,10,04,01,35,8.10
2015,10,04,01,36,8.00
2015,10,04,01,37,8.00
2015,10,04,01,38,7.90
2015,10,04,01,39,7.90
2015,10,04,01,40,7.80
2015,10,04,01,41,7.80
2015,10,04,01,42,7.80
2015,10,04,01,43,7.70
2015,10,04,01,44,7.70
2015,10,04,01,45,7.70
2015,10,04,01,46,7.60
2015,10,04,01,47,7.60
2015,10,04,01,48,7.60
2015,10,04,01,49,7.50
2015,10,04,01,50,7.50
2015,10,04,01,51,7.40
2015,10,04,01,52,7.40
2015,10,04,01,53,7.40
2015,10,04,01,54,7.40
2015,10,04,01,55,7.40
2015,10,04,01,56,7.40
2015,10,04,01,57,7.40
2015,10,04,01,58,7.40
2015,10,04,01,59,7.40
2015,10,04,02,00,7.30
2015,10,04,02,01,7.30
2015,10,04,02,02,7.30
2015,10,04,02,03,7.30
2015,10,04,02,04,7.30
2015,10,04,02,05,7.30
2015,10,04,02,06,7.30
2015,10,04,02,07,7.30
2015,10,04,02,08,7.40
2015,10,04,02,09,7.50
2015,10,04,02,10,7.50
2015,10,04,02,11,7.60
2015,10,04,02,12,7.70
2015,10,04,02,13,7.70
2015,10,04,02,14,7.70
2015,10,04,02,15,7.70
2015,10,04,02,16,7.60
2015,10,04,02,17,7.60
2015,10,04,02,18,7.50
2015,10,04,02,19,7.40
2015,10,04,02,20,7.40
2015,10,04,02,21,7.40
2015,10,04,02,22,7.40
2015,10,04,02,23,7.40
2015,10,04,02,24,7.40
2015,10,04,02,25,7.30
2015,10,04,02,26,7.30
2015,10,04,02,27,7.20
2015,10,04,02,28,7.20
2015,10,04,02,29,7.10
2015,10,04,02,30,7.10
2015,10,04,02,31,7.00
2015,10,04,02,32,7.00
2015,10,04,02,33,6.90
2015,10,04,02,34,6.90
2015,10,04,02,35,6.90
2015,10,04,02,36,6.90
2015,10,04,02,37,6.90
2015,10,04,02,38,6.90
2015,10,04,02,39,7.10
2015,10,04,02,40,7.10
2015,10,04,02,41,7.20
2015,10,04,02,42,7.20
2015,10,04,02,43,7.20
2015,10,04,02,44,7.20
2015,10,04,02,45,7.20
2015,10,04,02,46,7.10
2015,10,04,02,47,7.10
2015,10,04,02,48,7.10
2015,10,04,02,49,7.00
2015,10,04,02,50,7.00
2015,10,04,02,51,6.90
2015,10,04,02,52,6.90
2015,10,04,02,53,6.90
2015,10,04,02,54,6.80
2015,10,04,02,55,6.80
2015,10,04,02,56,6.80
2015,10,04,02,57,6.90
2015,10,04,02,58,6.90
2015,10,04,02,59,6.90
2015,10,04,03,00,6.90
2015,10,04,03,01,6.90
2015,10,04,03,02,6.90
2015,10,04,03,03,6.90
2015,10,04,03,04,6.90
2015,10,04,03,05,7.00
2015,10,04,03,06,7.10
2015,10,04,03,07,7.10
2015,10,04,03,08,7.20
2015,10,04,03,09,7.30
2015,10,04,03,10,7.30
2015,10,04,03,11,7.30
2015,10,04,03,12,7.30
2015,10,04,03,13,7.30
2015,10,04,03,14,7.30
2015,10,04,03,15,7.20
2015,10,04,03,16,7.20
2015,10,04,03,17,7.30
2015,10,04,03,18,7.40
2015,10,04,03,19,7.50
2015,10,04,03,20,7.60
2015,10,04,03,21,7.80
2015,10,04,03,22,7.90
2015,10,04,03,23,7.90
2015,10,04,03,24,8.00
2015,10,04,03,25,8.00
2015,10,04,03,26,8.10
2015,10,04,03,27,8.10
2015,10,04,03,28,8.10
2015,10,04,03,29,8.20
2015,10,04,03,30,8.30
2015,10,04,03,31,8.40
2015,10,04,03,32,8.60
2015,10,04,03,33,8.70
2015,10,04,03,34,8.70
2015,10,04,03,35,8.80
2015,10,04,03,36,8.90
2015,10,04,03,37,8.90
2015,10,04,03,38,9.00
2015,10,04,03,39,9.00
2015,10,04,03,40,9.10
2015,10,04,03,41,9.10
2015,10,04,03,42,9.10
2015,10,04,03,43,9.10
2015,10,04,03,44,9.10
2015,10,04,03,45,9.20
2015,10,04,03,46,9.10
2015,10,04,03,47,9.20
2015,10,04,03,48,9.20
2015,10,04,03,49,9.20
2015,10,04,03,50,9.20
2015,10,04,03,51,9.20
2015,10,04,03,52,9.20
2015,10,04,03,53,9.20
2015,10,04,03,54,9.20
2015,10,04,03,55,9.20
2015,10,04,03,56,9.10
2015,10,04,03,57,9.10
2015,10,04,03,58,9.10
2015,10,04,03,59,9.10
2015,10,04,04,00,9.10
2015,10,04,04,01,9.20
2015,10,04,04,02,9.20
2015,10,04,04,03,9.30
2015,10,04,04,04,9.40
2015,10,04,04,05,9.40
2015,10,04,04,06,9.40
2015,10,04,04,07,9.40
2015,10,04,04,08,9.40
2015,10,04,04,09,9.40
2015,10,04,04,10,9.40
2015,10,04,04,11,9.30
2015,10,04,04,12,9.20
2015,10,04,04,13,9.10
2015,10,04,04,14,9.00
2015,10,04,04,15,8.80
2015,10,04,04,16,8.70
2015,10,04,04,17,8.50
2015,10,04,04,18,8.40
2015,10,04,04,19,8.30
2015,10,04,04,20,8.20
2015,10,04,04,21,8.10
2015,10,04,04,22,8.00
2015,10,04,04,23,8.00
2015,10,04,04,24,7.90
2015,10,04,04,25,7.90
2015,10,04,04,26,7.90
2015,10,04,04,27,7.90
2015,10,04,04,28,7.80
2015,10,04,04,29,7.90
2015,10,04,04,30,8.00
2015,10,04,04,31,8.10
2015,10,04,04,32,8.10
2015,10,04,04,33,8.10
2015,10,04,04,34,8.10
2015,10,04,04,35,8.10
2015,10,04,04,36,8.00
2015,10,04,04,37,7.90
2015,10,04,04,38,7.90
2015,10,04,04,39,7.90
2015,10,04,04,40,7.90
2015,10,04,04,41,7.90
2015,10,04,04,42,7.90
2015,10,04,04,43,8.00
2015,10,04,04,44,8.00
2015,10,04,04,45,8.10
2015,10,04,04,46,8.10
2015,10,04,04,47,8.20
2015,10,04,04,48,8.20
2015,10,04,04,49,8.20
2015,10,04,04,50,8.20
2015,10,04,04,51,8.20
2015,10,04,04,52,8.10
2015,10,04,04,53,8.10
2015,10,04,04,54,8.00
2015,10,04,04,55,8.00
2015,10,04,04,56,7.90
2015,10,04,04,57,7.80
2015,10,04,04,58,7.70
2015,10,04,04,59,7.70
2015,10,04,05,00,7.70
2015,10,04,05,01,7.70
2015,10,04,05,02,7.70
2015,10,04,05,03,7.70
2015,10,04,05,04,7.70
2015,10,04,05,05,7.60
2015,10,04,05,06,7.60
2015,10,04,05,07,7.60
2015,10,04,05,08,7.60
2015,10,04,05,09,7.50
2015,10,04,05,10,7.50
2015,10,04,05,11,7.40
2015,10,04,05,12,7.30
2015,10,04,05,13,7.30
2015,10,04,05,14,7.20
2015,10,04,05,15,7.20
2015,10,04,05,16,7.10
2015,10,04,05,17,7.00
2015,10,04,05,18,7.00
2015,10,04,05,19,6.90
2015,10,04,05,20,6.80
2015,10,04,05,21,6.70
2015,10,04,05,22,6.70
2015,10,04,05,23,6.60
2015,10,04,05,24,6.60
2015,10,04,05,25,6.50
2015,10,04,05,26,6.50
2015,10,04,05,27,6.40
2015,10,04,05,28,6.30
2015,10,04,05,29,6.30
2015,10,04,05,30,6.20
2015,10,04,05,31,6.20
2015,10,04,05,32,6.20
2015,10,04,05,33,6.20
2015,10,04,05,34,6.30
2015,10,04,05,35,6.30
2015,10,04,05,36,6.40
2015,10,04,05,37,6.50
2015,10,04,05,38,6.50
2015,10,04,05,39,6.60
2015,10,04,05,40,6.70
2015,10,04,05,41,6.70
2015,10,04,05,42,6.70
2015,10,04,05,43,6.60
2015,10,04,05,44,6.60
2015,10,04,05,45,6.50
2015,10,04,05,46,6.50
2015,10,04,05,47,6.40
2015,10,04,05,48,6.40
2015,10,04,05,49,6.40
2015,10,04,05,50,6.30
2015,10,04,05,51,6.20
2015,10,04,05,52,6.20
2015,10,04,05,53,6.20
2015,10,04,05,54,6.10
2015,10,04,05,55,6.10
2015,10,04,05,56,6.10
2015,10,04,05,57,6.00
2015,10,04,05,58,6.00
2015,10,04,05,59,6.00
2015,10,04,06,00,6.00
2015,10,04,06,01,6.00
2015,10,04,06,02,6.00
2015,10,04,06,03,5.90
2015,10,04,06,04,5.90
2015,10,04,06,05,5.80
2015,10,04,06,06,5.80
2015,10,04,06,07,5.80
2015,10,04,06,08,5.80
2015,10,04,06,09,5.80
2015,10,04,06,10,5.80
2015,10,04,06,11,5.70
2015,10,04,06,12,5.70
2015,10,04,06,13,5.70
2015,10,04,06,14,5.70
2015,10,04,06,15,5.70
2015,10,04,06,16,5.70
2015,10,04,06,17,5.70
2015,10,04,06,18,5.70
2015,10,04,06,19,5.60
2015,10,04,06,20,5.60
2015,10,04,06,21,5.60
2015,10,04,06,22,5.60
2015,10,04,06,23,5.60
2015,10,04,06,24,5.60
2015,10,04,06,25,5.50
2015,10,04,06,26,5.50
2015,10,04,06,27,5.50
2015,10,04,06,28,5.50
2015,10,04,06,29,5.60
2015,10,04,06,30,5.70
2015,10,04,06,31,5.70
2015,10,04,06,32,5.70
2015,10,04,06,33,5.70
2015,10,04,06,34,5.70
2015,10,04,06,35,5.70
2015,10,04,06,36,5.60
2015,10,04,06,37,5.60
2015,10,04,06,38,5.60
2015,10,04,06,39,5.50
2015,10,04,06,40,5.50
2015,10,04,06,41,5.50
2015,10,04,06,42,5.60
2015,10,04,06,43,5.70
2015,10,04,06,44,5.70
2015,10,04,06,45,5.70
2015,10,04,06,46,5.60
2015,10,04,06,47,5.60
2015,10,04,06,48,5.70
2015,10,04,06,49,5.80
2015,10,04,06,50,5.80
2015,10,04,06,51,5.80
2015,10,04,06,52,5.80
2015,10,04,06,53,5.70
2015,10,04,06,54,5.70
2015,10,04,06,55,5.80
2015,10,04,06,56,5.80
2015,10,04,06,57,5.80
2015,10,04,06,58,5.90
2015,10,04,06,59,6.00
2015,10,04,07,00,6.10
2015,10,04,07,01,6.20
2015,10,04,07,02,6.30
2015,10,04,07,03,6.30
2015,10,04,07,04,6.20
2015,10,04,07,05,6.20
2015,10,04,07,06,6.20
2015,10,04,07,07,6.20
2015,10,04,07,08,6.20
2015,10,04,07,09,6.30
2015,10,04,07,10,6.40
2015,10,04,07,11,6.50
2015,10,04,07,12,6.50
2015,10,04,07,13,6.50
2015,10,04,07,14,6.40
2015,10,04,07,15,6.30
2015,10,04,07,16,6.30
2015,10,04,07,17,6.20
2015,10,04,07,18,6.10
2015,10,04,07,19,6.10
2015,10,04,07,20,6.10
2015,10,04,07,21,6.10
2015,10,04,07,22,6.10
2015,10,04,07,23,6.10
2015,10,04,07,24,6.20
2015,10,04,07,25,6.30
2015,10,04,07,26,6.30
2015,10,04,07,27,6.40
2015,10,04,07,28,6.40
2015,10,04,07,29,6.40
2015,10,04,07,30,6.40
2015,10,04,07,31,6.40
2015,10,04,07,32,6.40
2015,10,04,07,33,6.40
2015,10,04,07,34,6.40
2015,10,04,07,35,6.30
2015,10,04,07,36,6.30
2015,10,04,07,37,6.30
2015,10,04,07,38,6.20
2015,10,04,07,39,6.20
2015,10,04,07,40,6.10
2015,10,04,07,41,6.10
2015,10,04,07,42,6.00
2015,10,04,07,43,5.90
2015,10,04,07,44,5.80
2015,10,04,07,45,5.80
2015,10,04,07,46,5.70
2015,10,04,07,47,5.70
2015,10,04,07,48,5.60
2015,10,04,07,49,5.60
2015,10,04,07,50,5.50
2015,10,04,07,51,5.50
2015,10,04,07,52,5.40
2015,10,04,07,53,5.40
2015,10,04,07,54,5.40
2015,10,04,07,55,5.40
2015,10,04,07,56,5.30
2015,10,04,07,57,5.30
2015,10,04,07,58,5.40
2015,10,04,07,59,5.40
2015,10,04,08,00,5.50
2015,10,04,08,01,5.50
2015,10,04,08,02,5.60
2015,10,04,08,03,5.70
2015,10,04,08,04,5.80
2015,10,04,08,05,5.80
2015,10,04,08,06,5.80
2015,10,04,08,07,5.80
2015,10,04,08,08,5.80
2015,10,04,08,09,5.80
2015,10,04,08,10,5.80
2015,10,04,08,11,5.80
2015,10,04,08,12,5.80
2015,10,04,08,13,5.80
2015,10,04,08,14,5.80
2015,10,04,08,15,5.90
2015,10,04,08,16,6.00
2015,10,04,08,17,6.00
2015,10,04,08,18,6.10
2015,10,04,08,19,6.10
2015,10,04,08,20,6.10
2015,10,04,08,21,6.10
2015,10,04,08,22,6.10
2015,10,04,08,23,6.20
2015,10,04,08,24,6.20
2015,10,04,08,25,6.20
2015,10,04,08,26,6.20
2015,10,04,08,27,6.20
2015,10,04,08,28,6.30
2015,10,04,08,29,6.30
2015,10,04,08,30,6.30
2015,10,04,08,31,6.40
2015,10,04,08,32,6.40
2015,10,04,08,33,6.40
2015,10,04,08,34,6.50
2015,10,04,08,35,6.50
2015,10,04,08,36,6.60
2015,10,04,08,37,6.60
2015,10,04,08,38,6.70
2015,10,04,08,39,6.70
2015,10,04,08,40,6.70
2015,10,04,08,41,6.80
2015,10,04,08,42,6.90
2015,10,04,08,43,7.00
2015,10,04,08,44,7.00
2015,10,04,08,45,7.10
2015,10,04,08,46,7.20
2015,10,04,08,47,7.30
2015,10,04,08,48,7.30
2015,10,04,08,49,7.40
2015,10,04,08,50,7.50
2015,10,04,08,51,7.50
2015,10,04,08,52,7.60
2015,10,04,08,53,7.70
2015,10,04,08,54,7.90
2015,10,04,08,55,8.00
2015,10,04,08,56,8.10
2015,10,04,08,57,8.20
2015,10,04,08,58,8.30
2015,10,04,08,59,8.40
2015,10,04,09,00,8.50
2015,10,04,09,01,8.60
2015,10,04,09,02,8.70
2015,10,04,09,03,8.80
2015,10,04,09,04,8.90
2015,10,04,09,05,9.00
2015,10,04,09,06,9.10
2015,10,04,09,07,9.20
2015,10,04,09,08,9.30
2015,10,04,09,09,9.40
2015,10,04,09,10,9.50
2015,10,04,09,11,9.60
2015,10,04,09,12,9.60
2015,10,04,09,13,9.70
2015,10,04,09,14,9.80
2015,10,04,09,15,9.80
2015,10,04,09,16,9.90
2015,10,04,09,17,9.90
2015,10,04,09,18,10.00
2015,10,04,09,19,10.10
2015,10,04,09,20,10.10
2015,10,04,09,21,10.20
2015,10,04,09,22,10.20
2015,10,04,09,23,10.30
2015,10,04,09,24,10.30
2015,10,04,09,25,10.30
2015,10,04,09,26,10.40
2015,10,04,09,27,10.40
2015,10,04,09,28,10.50
2015,10,04,09,29,10.50
2015,10,04,09,30,10.60
2015,10,04,09,31,10.60
2015,10,04,09,32,10.70
2015,10,04,09,33,10.70
2015,10,04,09,34,10.70
2015,10,04,09,35,10.80
2015,10,04,09,36,10.80
2015,10,04,09,37,10.90
2015,10,04,09,38,10.90
2015,10,04,09,39,10.90
2015,10,04,09,40,10.90
2015,10,04,09,41,10.90
2015,10,04,09,42,10.90
2015,10,04,09,43,10.90
2015,10,04,09,44,10.90
2015,10,04,09,45,10.90
2015,10,04,09,46,10.90
2015,10,04,09,47,10.90
2015,10,04,09,48,11.00
2015,10,04,09,49,11.00
2015,10,04,09,50,11.00
2015,10,04,09,51,11.10
2015,10,04,09,52,11.10
2015,10,04,09,53,11.10
2015,10,04,09,54,11.10
2015,10,04,09,55,11.20
2015,10,04,09,56,11.20
2015,10,04,09,57,11.20
2015,10,04,09,58,11.20
2015,10,04,09,59,11.20
2015,10,04,10,00,11.20
2015,10,04,10,01,11.20
2015,10,04,10,02,11.20
2015,10,04,10,03,11.20
2015,10,04,10,04,11.20
2015,10,04,10,05,11.20
2015,10,04,10,06,11.20
2015,10,04,10,07,11.20
2015,10,04,10,08,11.20
2015,10,04,10,09,11.20
2015,10,04,10,10,11.20
2015,10,04,10,11,11.20
2015,10,04,10,12,11.20
2015,10,04,10,13,11.20
2015,10,04,10,14,11.20
2015,10,04,10,15,11.20
2015,10,04,10,16,11.20
2015,10,04,10,17,11.30
2015,10,04,10,18,11.30
2015,10,04,10,19,11.30
2015,10,04,10,20,11.30
2015,10,04,10,21,11.30
2015,10,04,10,22,11.40
2015,10,04,10,23,11.40
2015,10,04,10,24,11.40
2015,10,04,10,25,11.40
2015,10,04,10,26,11.50
2015,10,04,10,27,11.50
2015,10,04,10,28,11.60
2015,10,04,10,29,11.70
2015,10,04,10,30,11.70
2015,10,04,10,31,11.80
2015,10,04,10,32,11.90
2015,10,04,10,33,11.90
2015,10,04,10,34,12.00
2015,10,04,10,35,12.10
2015,10,04,10,36,12.10
2015,10,04,10,37,12.20
2015,10,04,10,38,12.20
2015,10,04,10,39,12.30
2015,10,04,10,40,12.30
2015,10,04,10,41,12.40
2015,10,04,10,42,12.40
2015,10,04,10,43,12.50
2015,10,04,10,44,12.60
2015,10,04,10,45,12.60
2015,10,04,10,46,12.70
2015,10,04,10,47,12.80
2015,10,04,10,48,12.90
2015,10,04,10,49,12.90
2015,10,04,10,50,13.00
2015,10,04,10,51,13.10
2015,10,04,10,52,13.10
2015,10,04,10,53,13.20
2015,10,04,10,54,13.30
2015,10,04,10,55,13.30
2015,10,04,10,56,13.30
2015,10,04,10,57,13.40
2015,10,04,10,58,13.40
2015,10,04,10,59,13.50
2015,10,04,11,00,13.60
2015,10,04,11,01,13.60
2015,10,04,11,02,13.70
2015,10,04,11,03,13.80
2015,10,04,11,04,13.80
2015,10,04,11,05,13.90
2015,10,04,11,06,13.90
2015,10,04,11,07,13.90
2015,10,04,11,08,14.00
2015,10,04,11,09,14.00
2015,10,04,11,10,14.00
2015,10,04,11,11,14.00
2015,10,04,11,12,13.90
2015,10,04,11,13,13.90
2015,10,04,11,14,13.90
2015,10,04,11,15,13.90
2015,10,04,11,16,13.90
2015,10,04,11,17,13.90
2015,10,04,11,18,13.90
2015,10,04,11,19,13.90
2015,10,04,11,20,13.90
2015,10,04,11,21,13.90
2015,10,04,11,22,13.90
2015,10,04,11,23,13.90
2015,10,04,11,24,13.90
2015,10,04,11,25,14.00
2015,10,04,11,26,14.00
2015,10,04,11,27,14.10
2015,10,04,11,28,14.10
2015,10,04,11,29,14.10
2015,10,04,11,30,14.20
2015,10,04,11,31,14.20
2015,10,04,11,32,14.20
2015,10,04,11,33,14.30
2015,10,04,11,34,14.30
2015,10,04,11,35,14.30
2015,10,04,11,36,14.30
2015,10,04,11,37,14.30
2015,10,04,11,38,14.30
2015,10,04,11,39,14.30
2015,10,04,11,40,14.30
2015,10,04,11,41,14.30
2015,10,04,11,42,14.30
2015,10,04,11,43,14.30
2015,10,04,11,44,14.30
2015,10,04,11,45,14.20
2015,10,04,11,46,14.20
2015,10,04,11,47,14.20
2015,10,04,11,48,14.20
2015,10,04,11,49,14.30
2015,10,04,11,50,14.30
2015,10,04,11,51,14.30
2015,10,04,11,52,14.30
2015,10,04,11,53,14.30
2015,10,04,11,54,14.30
2015,10,04,11,55,14.30
2015,10,04,11,56,14.30
2015,10,04,11,57,14.40
2015,10,04,11,58,14.40
2015,10,04,11,59,14.40
2015,10,04,12,00,14.40
2015,10,04,12,01,14.40
2015,10,04,12,02,14.40
2015,10,04,12,03,14.40
2015,10,04,12,04,14.40
2015,10,04,12,05,14.40
2015,10,04,12,06,14.40
2015,10,04,12,07,14.40
2015,10,04,12,08,14.40
2015,10,04,12,09,14.40
2015,10,04,12,10,14.50
2015,10,04,12,11,14.60
2015,10,04,12,12,14.70
2015,10,04,12,13,14.70
2015,10,04,12,14,14.80
2015,10,04,12,15,14.90
2015,10,04,12,16,15.00
2015,10,04,12,17,15.00
2015,10,04,12,18,15.00
2015,10,04,12,19,15.00
2015,10,04,12,20,15.00
2015,10,04,12,21,15.10
2015,10,04,12,22,15.10
2015,10,04,12,23,15.10
2015,10,04,12,24,15.10
2015,10,04,12,25,15.20
2015,10,04,12,26,15.20
2015,10,04,12,27,15.20
2015,10,04,12,28,15.30
2015,10,04,12,29,15.30
2015,10,04,12,30,15.40
2015,10,04,12,31,15.40
2015,10,04,12,32,15.50
2015,10,04,12,33,15.50
2015,10,04,12,34,15.50
2015,10,04,12,35,15.50
2015,10,04,12,36,15.50
2015,10,04,12,37,15.60
2015,10,04,12,38,15.60
2015,10,04,12,39,15.60
2015,10,04,12,40,15.60
2015,10,04,12,41,15.60
2015,10,04,12,42,15.60
2015,10,04,12,43,15.70
2015,10,04,12,44,15.70
2015,10,04,12,45,15.70
2015,10,04,12,46,15.60
2015,10,04,12,47,15.60
2015,10,04,12,48,15.60
2015,10,04,12,49,15.50
2015,10,04,12,50,15.50
2015,10,04,12,51,15.40
2015,10,04,12,52,15.40
2015,10,04,12,53,15.40
2015,10,04,12,54,15.40
2015,10,04,12,55,15.50
2015,10,04,12,56,15.50
2015,10,04,12,57,15.60
2015,10,04,12,58,15.70
2015,10,04,12,59,15.70
2015,10,04,13,00,15.80
2015,10,04,13,01,15.80
2015,10,04,13,02,15.80
2015,10,04,13,03,15.80
2015,10,04,13,04,15.80
2015,10,04,13,05,15.80
2015,10,04,13,06,15.80
2015,10,04,13,07,15.80
2015,10,04,13,08,15.80
2015,10,04,13,09,15.90
2015,10,04,13,10,15.90
2015,10,04,13,11,16.00
2015,10,04,13,12,16.00
2015,10,04,13,13,16.10
2015,10,04,13,14,16.10
2015,10,04,13,15,16.10
2015,10,04,13,16,16.10
2015,10,04,13,17,16.10
2015,10,04,13,18,16.00
2015,10,04,13,19,16.00
2015,10,04,13,20,16.00
2015,10,04,13,21,15.90
2015,10,04,13,22,15.90
2015,10,04,13,23,15.90
2015,10,04,13,24,15.90
2015,10,04,13,25,16.00
2015,10,04,13,26,16.00
2015,10,04,13,27,16.10
2015,10,04,13,28,16.10
2015,10,04,13,29,16.10
2015,10,04,13,30,16.20
2015,10,04,13,31,16.20
2015,10,04,13,32,16.20
2015,10,04,13,33,16.20
2015,10,04,13,34,16.20
2015,10,04,13,35,16.20
2015,10,04,13,36,16.20
2015,10,04,13,37,16.30
2015,10,04,13,38,16.30
2015,10,04,13,39,16.30
2015,10,04,13,40,16.40
2015,10,04,13,41,16.40
2015,10,04,13,42,16.50
2015,10,04,13,43,16.50
2015,10,04,13,44,16.60
2015,10,04,13,45,16.70
2015,10,04,13,46,16.80
2015,10,04,13,47,16.80
2015,10,04,13,48,16.80
2015,10,04,13,49,16.80
2015,10,04,13,50,16.80
2015,10,04,13,51,16.90
2015,10,04,13,52,16.90
2015,10,04,13,53,17.00
2015,10,04,13,54,17.00
2015,10,04,13,55,17.10
2015,10,04,13,56,17.20
2015,10,04,13,57,17.20
2015,10,04,13,58,17.20
2015,10,04,13,59,17.20
2015,10,04,14,00,17.20
2015,10,04,14,01,17.10
2015,10,04,14,02,17.10
2015,10,04,14,03,17.00
2015,10,04,14,04,17.00
2015,10,04,14,05,17.00
2015,10,04,14,06,16.90
2015,10,04,14,07,16.90
2015,10,04,14,08,16.90
2015,10,04,14,09,16.90
2015,10,04,14,10,16.90
2015,10,04,14,11,16.90
2015,10,04,14,12,16.90
2015,10,04,14,13,16.90
2015,10,04,14,14,16.90
2015,10,04,14,15,16.90
2015,10,04,14,16,17.00
2015,10,04,14,17,17.00
2015,10,04,14,18,17.00
2015,10,04,14,19,17.00
2015,10,04,14,20,16.90
2015,10,04,14,21,16.90
2015,10,04,14,22,16.90
2015,10,04,14,23,16.90
2015,10,04,14,24,16.90
2015,10,04,14,25,17.00
2015,10,04,14,26,16.90
2015,10,04,14,27,16.90
2015,10,04,14,28,16.90
2015,10,04,14,29,16.90
2015,10,04,14,30,16.90
2015,10,04,14,31,16.80
2015,10,04,14,32,16.80
2015,10,04,14,33,16.80
2015,10,04,14,34,16.70
2015,10,04,14,35,16.70
2015,10,04,14,36,16.70
2015,10,04,14,37,16.70
2015,10,04,14,38,16.70
2015,10,04,14,39,16.80
2015,10,04,14,40,16.80
2015,10,04,14,41,16.80
2015,10,04,14,42,16.80
2015,10,04,14,43,16.80
2015,10,04,14,44,16.70
2015,10,04,14,45,16.70
2015,10,04,14,46,16.70
2015,10,04,14,47,16.70
2015,10,04,14,48,16.70
2015,10,04,14,49,16.60
2015,10,04,14,50,16.60
2015,10,04,14,51,16.60
2015,10,04,14,52,16.70
2015,10,04,14,53,16.70
2015,10,04,14,54,16.70
2015,10,04,14,55,16.70
2015,10,04,14,56,16.70
2015,10,04,14,57,16.70
2015,10,04,14,58,16.80
2015,10,04,14,59,16.80
2015,10,04,15,00,16.80
2015,10,04,15,01,16.80
2015,10,04,15,02,16.80
2015,10,04,15,03,16.90
2015,10,04,15,04,16.90
2015,10,04,15,05,16.90
2015,10,04,15,06,16.90
2015,10,04,15,07,17.00
2015,10,04,15,08,17.00
2015,10,04,15,09,17.00
2015,10,04,15,10,17.10
2015,10,04,15,11,17.10
2015,10,04,15,12,17.10
2015,10,04,15,13,17.10
2015,10,04,15,14,17.10
2015,10,04,15,15,17.20
2015,10,04,15,16,17.30
2015,10,04,15,17,17.30
2015,10,04,15,18,17.30
2015,10,04,15,19,17.30
2015,10,04,15,20,17.30
2015,10,04,15,21,17.30
2015,10,04,15,22,17.40
2015,10,04,15,23,17.30
2015,10,04,15,24,17.30
2015,10,04,15,25,17.30
2015,10,04,15,26,17.20
2015,10,04,15,27,17.20
2015,10,04,15,28,17.20
2015,10,04,15,29,17.10
2015,10,04,15,30,17.10
2015,10,04,15,31,17.10
2015,10,04,15,32,17.10
2015,10,04,15,33,17.10
2015,10,04,15,34,17.20
2015,10,04,15,35,17.20
2015,10,04,15,36,17.20
2015,10,04,15,37,17.20
2015,10,04,15,38,17.30
2015,10,04,15,39,17.30
2015,10,04,15,40,17.30
2015,10,04,15,41,17.30
2015,10,04,15,42,17.40
2015,10,04,15,43,17.40
2015,10,04,15,44,17.40
2015,10,04,15,45,17.40
2015,10,04,15,46,17.40
2015,10,04,15,47,17.50
2015,10,04,15,48,17.60
2015,10,04,15,49,17.60
2015,10,04,15,50,17.60
2015,10,04,15,51,17.70
2015,10,04,15,52,17.80
2015,10,04,15,53,17.80
2015,10,04,15,54,17.90
2015,10,04,15,55,17.90
2015,10,04,15,56,17.90
2015,10,04,15,57,18.00
2015,10,04,15,58,18.00
2015,10,04,15,59,18.10
2015,10,04,16,00,18.10
2015,10,04,16,01,18.10
2015,10,04,16,02,18.10
2015,10,04,16,03,18.10
2015,10,04,16,04,18.10
2015,10,04,16,05,18.20
2015,10,04,16,06,18.20
2015,10,04,16,07,18.20
2015,10,04,16,08,18.20
2015,10,04,16,09,18.20
2015,10,04,16,10,18.20
2015,10,04,16,11,18.30
2015,10,04,16,12,18.30
2015,10,04,16,13,18.30
2015,10,04,16,14,18.30
2015,10,04,16,15,18.30
2015,10,04,16,16,18.40
2015,10,04,16,17,18.40
2015,10,04,16,18,18.40
2015,10,04,16,19,18.40
2015,10,04,16,20,18.40
2015,10,04,16,21,18.50
2015,10,04,16,22,18.50
2015,10,04,16,23,18.60
2015,10,04,16,24,18.60
2015,10,04,16,25,18.70
2015,10,04,16,26,18.70
2015,10,04,16,27,18.80
2015,10,04,16,28,18.80
2015,10,04,16,29,18.80
2015,10,04,16,30,18.90
2015,10,04,16,31,18.90
2015,10,04,16,32,18.90
2015,10,04,16,33,18.90
2015,10,04,16,34,18.90
2015,10,04,16,35,18.80
2015,10,04,16,36,18.80
2015,10,04,16,37,18.80
2015,10,04,16,38,18.80
2015,10,04,16,39,18.80
2015,10,04,16,40,18.80
2015,10,04,16,41,18.80
2015,10,04,16,42,18.90
2015,10,04,16,43,18.90
2015,10,04,16,44,19.00
2015,10,04,16,45,19.00
2015,10,04,16,46,19.10
2015,10,04,16,47,19.10
2015,10,04,16,48,19.10
2015,10,04,16,49,19.10
2015,10,04,16,50,19.20
2015,10,04,16,51,19.20
2015,10,04,16,52,19.20
2015,10,04,16,53,19.20
2015,10,04,16,54,19.20
2015,10,04,16,55,19.20
2015,10,04,16,56,19.20
2015,10,04,16,57,19.30
2015,10,04,16,58,19.30
2015,10,04,16,59,19.30
2015,10,04,17,00,19.30
2015,10,04,17,01,19.30
2015,10,04,17,02,19.20
2015,10,04,17,03,19.20
2015,10,04,17,04,19.20
2015,10,04,17,05,19.10
2015,10,04,17,06,19.10
2015,10,04,17,07,19.00
2015,10,04,17,08,18.90
2015,10,04,17,09,18.90
2015,10,04,17,10,18.80
2015,10,04,17,11,18.70
2015,10,04,17,12,18.70
2015,10,04,17,13,18.60
2015,10,04,17,14,18.50
2015,10,04,17,15,18.40
2015,10,04,17,16,18.30
2015,10,04,17,17,18.20
2015,10,04,17,18,18.10
2015,10,04,17,19,18.00
2015,10,04,17,20,18.00
2015,10,04,17,21,17.80
2015,10,04,17,22,17.80
2015,10,04,17,23,17.70
2015,10,04,17,24,17.60
2015,10,04,17,25,17.50
2015,10,04,17,26,17.40
2015,10,04,17,27,17.30
2015,10,04,17,28,17.30
2015,10,04,17,29,17.20
2015,10,04,17,30,17.10
2015,10,04,17,31,17.00
2015,10,04,17,32,16.90
2015,10,04,17,33,16.80
2015,10,04,17,34,16.80
2015,10,04,17,35,16.70
2015,10,04,17,36,16.70
2015,10,04,17,37,16.60
2015,10,04,17,38,16.50
2015,10,04,17,39,16.50
2015,10,04,17,40,16.40